Regional Weather Roundup
Issued by NWS

Home | Current Version | Previous Version | Graphics & Text | Print | Product List | Glossary On
Versions: 1 2 3 4 5 6 7 8 9 10 11 12 13 14 15 16 17 18 19 20 21 22 23 24 25 26 27
000
ASUS45 KBOI 070510
RWRID

IDAHO REGIONAL WEATHER ROUNDUP
NATIONAL WEATHER SERVICE BOISE ID
1000 PM MST TUE DEC 06 2016

NOTE: "FAIR" INDICATES FEW OR NO CLOUDS BELOW 12000 FEET
WITH NO SIGNIFICANT WEATHER AND/OR OBSTRUCTIONS TO VISIBILITY

IDZ012-014-070600-
SOUTHWEST IDAHO


CITY           SKY/WX    TMP DP  RH WIND       PRES   REMARKS
BOISE          CLEAR     15  13  91 CALM      30.11R
CALDWELL       CLEAR     15  12  88 SW7       30.14R FOG     WCI   5
MOUNTAIN HOME  CLEAR     15  13  94 N8        30.08R WCI   4
$$

IDZ016-017-070600-
SOUTHCENTRAL IDAHO


CITY           SKY/WX    TMP DP  RH WIND       PRES   REMARKS
BURLEY         FLURRIES  20  16  84 W8        29.99R WCI  10
JEROME         CLOUDY    20  18  92 SW13      30.01R WCI   7
TWIN FALLS     CLOUDY    20  16  84 SW10      30.01R WCI   9
$$

IDZ019>023-070600-
SOUTHEAST IDAHO


CITY           SKY/WX    TMP DP  RH WIND       PRES   REMARKS
IDAHO FALLS    CLOUDY    14   6  70 N8        29.94R WCI   3
POCATELLO      LGT SNOW  18  15  88 NW9       29.97R WCI   7
REXBURG        CLOUDY    12   6  77 N5        29.92R WCI   4
$$

IDZ006-010-011-018-031-032-070600-
CENTRAL IDAHO MOUNTAINS


CITY           SKY/WX    TMP DP  RH WIND       PRES   REMARKS
MCCALL         PTCLDY    11   7  84 N5        29.95R WCI   3
HAILEY         CLEAR      9   5  85 NW7       29.93R WCI  -3
STANLEY          N/A      0  -4  83 CALM      29.89R
SALMON         CLOUDY    10   7  85 CALM      30.04R
CHALLIS        LGT SNOW  12  11  95 CALM      29.96R FOG
$$

IDZ002-004-006-007-026-070600-
NORTHERN IDAHO


CITY           SKY/WX    TMP DP  RH WIND       PRES   REMARKS
LEWISTON       CLOUDY    27  19  72 W6        30.21R WCI  20
LOWELL         NOT AVBL
COEUR D`ALENE  CLEAR     17  12  80 NE5       30.18R WCI  10
MULLAN PASS    FLURRIES   6   3  87 E3        29.92R
$$




USA.gov is the U.S. government's official web portal to all federal, state and local government web resources and services.